Torna al catalogo

STARLINK-31865

AttivoComunicazioniVLEO
NORAD 59791·PAYLOAD·🇺🇸 United States

Lanciato May 18, 2024 da Cape Canaveral Space Force Station

Loading…

Prossimi Passaggi (prossime 24 ore)

TLE

AggiornatoSource: CelesTrak SupGP

Epoca: Sep 15, 2026, 01:50 UTC

1 59791C 24093K   26258.07687500 -.00051472  00000+0 -18644-2 0  2588
2 59791  43.0017 219.2458 0001358 268.6906 350.2700 15.27601935    10

Traccia STARLINK-31865 in tempo reale con AllMySat

Download on the App Store